Year,Month,Day,Hour,Minute,Value (Times are PST for temperature in C)
2019,07,10,00,00,13.30
2019,07,10,00,01,13.20
2019,07,10,00,02,13.30
2019,07,10,00,03,13.20
2019,07,10,00,04,13.20
2019,07,10,00,05,13.20
2019,07,10,00,06,13.20
2019,07,10,00,07,13.20
2019,07,10,00,08,13.20
2019,07,10,00,09,13.20
2019,07,10,00,10,13.20
2019,07,10,00,11,13.20
2019,07,10,00,12,13.20
2019,07,10,00,13,13.20
2019,07,10,00,14,13.20
2019,07,10,00,15,13.20
2019,07,10,00,16,13.20
2019,07,10,00,17,13.20
2019,07,10,00,18,13.20
2019,07,10,00,19,13.20
2019,07,10,00,20,13.20
2019,07,10,00,21,13.20
2019,07,10,00,22,13.10
2019,07,10,00,23,13.10
2019,07,10,00,24,13.10
2019,07,10,00,25,13.10
2019,07,10,00,26,13.10
2019,07,10,00,27,13.10
2019,07,10,00,28,13.10
2019,07,10,00,29,13.10
2019,07,10,00,30,13.00
2019,07,10,00,31,13.00
2019,07,10,00,32,13.00
2019,07,10,00,33,13.00
2019,07,10,00,34,13.00
2019,07,10,00,35,13.00
2019,07,10,00,36,13.00
2019,07,10,00,37,13.10
2019,07,10,00,38,13.00
2019,07,10,00,39,13.00
2019,07,10,00,40,13.00
2019,07,10,00,41,13.00
2019,07,10,00,42,13.00
2019,07,10,00,43,13.10
2019,07,10,00,44,13.00
2019,07,10,00,45,13.00
2019,07,10,00,46,13.00
2019,07,10,00,47,13.00
2019,07,10,00,48,13.00
2019,07,10,00,49,13.00
2019,07,10,00,50,13.00
2019,07,10,00,51,13.00
2019,07,10,00,52,13.00
2019,07,10,00,53,13.00
2019,07,10,00,54,13.00
2019,07,10,00,55,12.90
2019,07,10,00,56,12.90
2019,07,10,00,57,12.90
2019,07,10,00,58,12.90
2019,07,10,00,59,12.90
2019,07,10,01,00,12.90
2019,07,10,01,01,12.90
2019,07,10,01,02,12.90
2019,07,10,01,03,12.90
2019,07,10,01,04,12.90
2019,07,10,01,05,12.90
2019,07,10,01,06,12.90
2019,07,10,01,07,12.90
2019,07,10,01,08,12.90
2019,07,10,01,09,12.90
2019,07,10,01,10,12.90
2019,07,10,01,11,12.80
2019,07,10,01,12,12.90
2019,07,10,01,13,12.80
2019,07,10,01,14,12.80
2019,07,10,01,15,12.80
2019,07,10,01,16,12.80
2019,07,10,01,17,12.80
2019,07,10,01,18,12.80
2019,07,10,01,19,12.80
2019,07,10,01,20,12.80
2019,07,10,01,21,12.80
2019,07,10,01,22,12.80
2019,07,10,01,23,12.80
2019,07,10,01,24,12.80
2019,07,10,01,25,12.80
2019,07,10,01,26,12.80
2019,07,10,01,27,12.80
2019,07,10,01,28,12.80
2019,07,10,01,29,12.80
2019,07,10,01,30,12.80
2019,07,10,01,31,12.80
2019,07,10,01,32,12.80
2019,07,10,01,33,12.80
2019,07,10,01,34,12.70
2019,07,10,01,35,12.70
2019,07,10,01,36,12.70
2019,07,10,01,37,12.70
2019,07,10,01,38,12.70
2019,07,10,01,39,12.70
2019,07,10,01,40,12.70
2019,07,10,01,41,12.70
2019,07,10,01,42,12.70
2019,07,10,01,43,12.70
2019,07,10,01,44,12.70
2019,07,10,01,45,12.70
2019,07,10,01,46,12.70
2019,07,10,01,47,12.70
2019,07,10,01,48,12.60
2019,07,10,01,49,12.60
2019,07,10,01,50,12.60
2019,07,10,01,51,12.60
2019,07,10,01,52,12.60
2019,07,10,01,53,12.60
2019,07,10,01,54,12.60
2019,07,10,01,55,12.50
2019,07,10,01,56,12.50
2019,07,10,01,57,12.50
2019,07,10,01,58,12.50
2019,07,10,01,59,12.40
2019,07,10,02,00,12.40
2019,07,10,02,01,12.40
2019,07,10,02,02,12.40
2019,07,10,02,03,12.40
2019,07,10,02,04,12.30
2019,07,10,02,05,12.30
2019,07,10,02,06,12.30
2019,07,10,02,07,12.30
2019,07,10,02,08,12.30
2019,07,10,02,09,12.20
2019,07,10,02,10,12.20
2019,07,10,02,11,12.20
2019,07,10,02,12,12.10
2019,07,10,02,13,12.10
2019,07,10,02,14,12.10
2019,07,10,02,15,12.10
2019,07,10,02,16,12.10
2019,07,10,02,17,12.10
2019,07,10,02,18,12.00
2019,07,10,02,19,12.00
2019,07,10,02,20,12.00
2019,07,10,02,21,11.90
2019,07,10,02,22,11.90
2019,07,10,02,23,11.90
2019,07,10,02,24,11.90
2019,07,10,02,25,11.90
2019,07,10,02,26,11.90
2019,07,10,02,27,11.80
2019,07,10,02,28,11.80
2019,07,10,02,29,11.80
2019,07,10,02,30,11.80
2019,07,10,02,31,11.80
2019,07,10,02,32,11.80
2019,07,10,02,33,11.90
2019,07,10,02,34,11.90
2019,07,10,02,35,12.00
2019,07,10,02,36,12.10
2019,07,10,02,37,12.20
2019,07,10,02,38,12.20
2019,07,10,02,39,12.30
2019,07,10,02,40,12.30
2019,07,10,02,41,12.30
2019,07,10,02,42,12.40
2019,07,10,02,43,12.40
2019,07,10,02,44,12.40
2019,07,10,02,45,12.40
2019,07,10,02,46,12.40
2019,07,10,02,47,12.40
2019,07,10,02,48,12.40
2019,07,10,02,49,12.40
2019,07,10,02,50,12.40
2019,07,10,02,51,12.40
2019,07,10,02,52,12.30
2019,07,10,02,53,12.30
2019,07,10,02,54,12.30
2019,07,10,02,55,12.30
2019,07,10,02,56,12.30
2019,07,10,02,57,12.30
2019,07,10,02,58,12.30
2019,07,10,02,59,12.30
2019,07,10,03,00,12.30
2019,07,10,03,01,12.30
2019,07,10,03,02,12.20
2019,07,10,03,03,12.20
2019,07,10,03,04,12.20
2019,07,10,03,05,12.10
2019,07,10,03,06,12.10
2019,07,10,03,07,12.10
2019,07,10,03,08,12.10
2019,07,10,03,09,12.10
2019,07,10,03,10,12.10
2019,07,10,03,11,12.10
2019,07,10,03,12,12.10
2019,07,10,03,13,12.00
2019,07,10,03,14,12.00
2019,07,10,03,15,12.00
2019,07,10,03,16,12.00
2019,07,10,03,17,12.00
2019,07,10,03,18,12.00
2019,07,10,03,19,12.00
2019,07,10,03,20,12.00
2019,07,10,03,21,12.00
2019,07,10,03,22,12.00
2019,07,10,03,23,12.10
2019,07,10,03,24,12.00
2019,07,10,03,25,12.00
2019,07,10,03,26,12.00
2019,07,10,03,27,12.00
2019,07,10,03,28,12.00
2019,07,10,03,29,11.90
2019,07,10,03,30,11.90
2019,07,10,03,31,11.90
2019,07,10,03,32,11.90
2019,07,10,03,33,11.90
2019,07,10,03,34,11.90
2019,07,10,03,35,11.90
2019,07,10,03,36,11.90
2019,07,10,03,37,11.90
2019,07,10,03,38,11.90
2019,07,10,03,39,11.80
2019,07,10,03,40,11.70
2019,07,10,03,41,11.60
2019,07,10,03,42,11.60
2019,07,10,03,43,11.60
2019,07,10,03,44,11.50
2019,07,10,03,45,11.50
2019,07,10,03,46,11.50
2019,07,10,03,47,11.50
2019,07,10,03,48,11.50
2019,07,10,03,49,11.60
2019,07,10,03,50,11.70
2019,07,10,03,51,11.80
2019,07,10,03,52,11.90
2019,07,10,03,53,11.80
2019,07,10,03,54,11.60
2019,07,10,03,55,11.40
2019,07,10,03,56,11.40
2019,07,10,03,57,11.40
2019,07,10,03,58,11.30
2019,07,10,03,59,11.30
2019,07,10,04,00,11.20
2019,07,10,04,01,11.20
2019,07,10,04,02,11.20
2019,07,10,04,03,11.20
2019,07,10,04,04,11.20
2019,07,10,04,05,11.30
2019,07,10,04,06,11.30
2019,07,10,04,07,11.30
2019,07,10,04,08,11.30
2019,07,10,04,09,11.40
2019,07,10,04,10,11.40
2019,07,10,04,11,11.50
2019,07,10,04,12,11.60
2019,07,10,04,13,11.50
2019,07,10,04,14,11.40
2019,07,10,04,15,11.50
2019,07,10,04,16,11.50
2019,07,10,04,17,11.50
2019,07,10,04,18,11.40
2019,07,10,04,19,11.40
2019,07,10,04,20,11.30
2019,07,10,04,21,11.40
2019,07,10,04,22,11.40
2019,07,10,04,23,11.50
2019,07,10,04,24,11.50
2019,07,10,04,25,11.40
2019,07,10,04,26,11.40
2019,07,10,04,27,11.40
2019,07,10,04,28,11.40
2019,07,10,04,29,11.40
2019,07,10,04,30,11.40
2019,07,10,04,31,11.40
2019,07,10,04,32,11.40
2019,07,10,04,33,11.30
2019,07,10,04,34,11.30
2019,07,10,04,35,11.30
2019,07,10,04,36,11.30
2019,07,10,04,37,11.40
2019,07,10,04,38,11.40
2019,07,10,04,39,11.40
2019,07,10,04,40,11.40
2019,07,10,04,41,11.40
2019,07,10,04,42,11.50
2019,07,10,04,43,11.50
2019,07,10,04,44,11.60
2019,07,10,04,45,11.70
2019,07,10,04,46,11.80
2019,07,10,04,47,11.80
2019,07,10,04,48,11.70
2019,07,10,04,49,11.70
2019,07,10,04,50,11.70
2019,07,10,04,51,11.70
2019,07,10,04,52,11.70
2019,07,10,04,53,11.60
2019,07,10,04,54,11.50
2019,07,10,04,55,11.30
2019,07,10,04,56,11.10
2019,07,10,04,57,10.90
2019,07,10,04,58,10.80
2019,07,10,04,59,10.90
2019,07,10,05,00,10.90
2019,07,10,05,01,10.90
2019,07,10,05,02,10.90
2019,07,10,05,03,10.90
2019,07,10,05,04,10.90
2019,07,10,05,05,10.90
2019,07,10,05,06,10.90
2019,07,10,05,07,10.90
2019,07,10,05,08,10.80
2019,07,10,05,09,10.80
2019,07,10,05,10,10.80
2019,07,10,05,11,10.80
2019,07,10,05,12,10.80
2019,07,10,05,13,10.70
2019,07,10,05,14,10.70
2019,07,10,05,15,10.70
2019,07,10,05,16,10.70
2019,07,10,05,17,10.80
2019,07,10,05,18,10.90
2019,07,10,05,19,10.90
2019,07,10,05,20,10.80
2019,07,10,05,21,10.80
2019,07,10,05,22,10.80
2019,07,10,05,23,10.80
2019,07,10,05,24,10.80
2019,07,10,05,25,10.90
2019,07,10,05,26,10.90
2019,07,10,05,27,10.90
2019,07,10,05,28,11.00
2019,07,10,05,29,11.00
2019,07,10,05,30,11.00
2019,07,10,05,31,11.00
2019,07,10,05,32,10.90
2019,07,10,05,33,11.00
2019,07,10,05,34,11.00
2019,07,10,05,35,11.10
2019,07,10,05,36,11.10
2019,07,10,05,37,11.00
2019,07,10,05,38,11.00
2019,07,10,05,39,10.90
2019,07,10,05,40,10.90
2019,07,10,05,41,10.90
2019,07,10,05,42,10.90
2019,07,10,05,43,10.90
2019,07,10,05,44,10.90
2019,07,10,05,45,10.90
2019,07,10,05,46,10.90
2019,07,10,05,47,10.90
2019,07,10,05,48,11.00
2019,07,10,05,49,11.00
2019,07,10,05,50,11.00
2019,07,10,05,51,11.10
2019,07,10,05,52,11.10
2019,07,10,05,53,11.10
2019,07,10,05,54,11.10
2019,07,10,05,55,11.10
2019,07,10,05,56,11.20
2019,07,10,05,57,11.20
2019,07,10,05,58,11.20
2019,07,10,05,59,11.20
2019,07,10,06,00,11.20
2019,07,10,06,01,11.30
2019,07,10,06,02,11.30
2019,07,10,06,03,11.30
2019,07,10,06,04,11.30
2019,07,10,06,05,11.30
2019,07,10,06,06,11.30
2019,07,10,06,07,11.30
2019,07,10,06,08,11.30
2019,07,10,06,09,11.30
2019,07,10,06,10,11.40
2019,07,10,06,11,11.40
2019,07,10,06,12,11.40
2019,07,10,06,13,11.40
2019,07,10,06,14,11.40
2019,07,10,06,15,11.40
2019,07,10,06,16,11.40
2019,07,10,06,17,11.40
2019,07,10,06,18,11.50
2019,07,10,06,19,11.50
2019,07,10,06,20,11.50
2019,07,10,06,21,11.60
2019,07,10,06,22,11.60
2019,07,10,06,23,11.60
2019,07,10,06,24,11.60
2019,07,10,06,25,11.60
2019,07,10,06,26,11.60
2019,07,10,06,27,11.60
2019,07,10,06,28,11.50
2019,07,10,06,29,11.50
2019,07,10,06,30,11.50
2019,07,10,06,31,11.50
2019,07,10,06,32,11.40
2019,07,10,06,33,11.50
2019,07,10,06,34,11.50
2019,07,10,06,35,11.50
2019,07,10,06,36,11.50
2019,07,10,06,37,11.40
2019,07,10,06,38,11.40
2019,07,10,06,39,11.50
2019,07,10,06,40,11.50
2019,07,10,06,41,11.60
2019,07,10,06,42,11.60
2019,07,10,06,43,11.60
2019,07,10,06,44,11.70
2019,07,10,06,45,11.70
2019,07,10,06,46,11.70
2019,07,10,06,47,11.70
2019,07,10,06,48,11.80
2019,07,10,06,49,11.90
2019,07,10,06,50,11.90
2019,07,10,06,51,11.90
2019,07,10,06,52,11.90
2019,07,10,06,53,11.90
2019,07,10,06,54,11.90
2019,07,10,06,55,11.90
2019,07,10,06,56,11.80
2019,07,10,06,57,11.80
2019,07,10,06,58,11.80
2019,07,10,06,59,11.80
2019,07,10,07,00,11.90
2019,07,10,07,01,11.90
2019,07,10,07,02,12.00
2019,07,10,07,03,12.10
2019,07,10,07,04,12.10
2019,07,10,07,05,12.10
2019,07,10,07,06,12.00
2019,07,10,07,07,12.00
2019,07,10,07,08,12.00
2019,07,10,07,09,12.00
2019,07,10,07,10,12.00
2019,07,10,07,11,12.10
2019,07,10,07,12,12.10
2019,07,10,07,13,12.10
2019,07,10,07,14,12.20
2019,07,10,07,15,12.20
2019,07,10,07,16,12.10
2019,07,10,07,17,12.20
2019,07,10,07,18,12.30
2019,07,10,07,19,12.40
2019,07,10,07,20,12.50
2019,07,10,07,21,12.60
2019,07,10,07,22,12.60
2019,07,10,07,23,12.60
2019,07,10,07,24,12.60
2019,07,10,07,25,12.60
2019,07,10,07,26,12.60
2019,07,10,07,27,12.60
2019,07,10,07,28,12.70
2019,07,10,07,29,12.80
2019,07,10,07,30,12.90
2019,07,10,07,31,12.90
2019,07,10,07,32,13.00
2019,07,10,07,33,13.00
2019,07,10,07,34,13.00
2019,07,10,07,35,13.00
2019,07,10,07,36,13.00
2019,07,10,07,37,13.00
2019,07,10,07,38,13.00
2019,07,10,07,39,13.00
2019,07,10,07,40,13.00
2019,07,10,07,41,13.00
2019,07,10,07,42,13.00
2019,07,10,07,43,13.00
2019,07,10,07,44,13.00
2019,07,10,07,45,13.00
2019,07,10,07,46,12.90
2019,07,10,07,47,13.00
2019,07,10,07,48,13.00
2019,07,10,07,49,13.00
2019,07,10,07,50,13.00
2019,07,10,07,51,13.00
2019,07,10,07,52,13.10
2019,07,10,07,53,13.20
2019,07,10,07,54,13.20
2019,07,10,07,55,13.20
2019,07,10,07,56,13.30
2019,07,10,07,57,13.30
2019,07,10,07,58,13.30
2019,07,10,07,59,13.30
2019,07,10,08,00,13.40
2019,07,10,08,01,13.40
2019,07,10,08,02,13.40
2019,07,10,08,03,13.40
2019,07,10,08,04,13.50
2019,07,10,08,05,13.50
2019,07,10,08,06,13.60
2019,07,10,08,07,13.70
2019,07,10,08,08,13.80
2019,07,10,08,09,13.80
2019,07,10,08,10,14.00
2019,07,10,08,11,14.10
2019,07,10,08,12,14.10
2019,07,10,08,13,14.20
2019,07,10,08,14,14.20
2019,07,10,08,15,14.20
2019,07,10,08,16,14.20
2019,07,10,08,17,14.10
2019,07,10,08,18,14.10
2019,07,10,08,19,14.10
2019,07,10,08,20,14.10
2019,07,10,08,21,14.10
2019,07,10,08,22,14.10
2019,07,10,08,23,14.00
2019,07,10,08,24,14.00
2019,07,10,08,25,13.90
2019,07,10,08,26,14.00
2019,07,10,08,27,14.00
2019,07,10,08,28,14.00
2019,07,10,08,29,14.00
2019,07,10,08,30,14.10
2019,07,10,08,31,14.10
2019,07,10,08,32,14.10
2019,07,10,08,33,14.10
2019,07,10,08,34,14.20
2019,07,10,08,35,14.20
2019,07,10,08,36,14.20
2019,07,10,08,37,14.20
2019,07,10,08,38,14.20
2019,07,10,08,39,14.30
2019,07,10,08,40,14.30
2019,07,10,08,41,14.30
2019,07,10,08,42,14.30
2019,07,10,08,43,14.30
2019,07,10,08,44,14.40
2019,07,10,08,45,14.40
2019,07,10,08,46,14.40
2019,07,10,08,47,14.40
2019,07,10,08,48,14.50
2019,07,10,08,49,14.50
2019,07,10,08,50,14.50
2019,07,10,08,51,14.60
2019,07,10,08,52,14.60
2019,07,10,08,53,14.60
2019,07,10,08,54,14.60
2019,07,10,08,55,14.60
2019,07,10,08,56,14.60
2019,07,10,08,57,14.60
2019,07,10,08,58,14.60
2019,07,10,08,59,14.60
2019,07,10,09,00,14.60
2019,07,10,09,01,14.70
2019,07,10,09,02,14.70
2019,07,10,09,03,14.70
2019,07,10,09,04,14.80
2019,07,10,09,05,14.80
2019,07,10,09,06,14.80
2019,07,10,09,07,14.80
2019,07,10,09,08,14.80
2019,07,10,09,09,14.80
2019,07,10,09,10,14.80
2019,07,10,09,11,14.80
2019,07,10,09,12,14.70
2019,07,10,09,13,14.70
2019,07,10,09,14,14.80
2019,07,10,09,15,14.70
2019,07,10,09,16,14.70
2019,07,10,09,17,14.70
2019,07,10,09,18,14.60
2019,07,10,09,19,14.60
2019,07,10,09,20,14.60
2019,07,10,09,21,14.50
2019,07,10,09,22,14.50
2019,07,10,09,23,14.50
2019,07,10,09,24,14.50
2019,07,10,09,25,14.40
2019,07,10,09,26,14.40
2019,07,10,09,27,14.40
2019,07,10,09,28,14.30
2019,07,10,09,29,14.30
2019,07,10,09,30,14.20
2019,07,10,09,31,14.20
2019,07,10,09,32,14.20
2019,07,10,09,33,14.20
2019,07,10,09,34,14.20
2019,07,10,09,35,14.20
2019,07,10,09,36,14.20
2019,07,10,09,37,14.20
2019,07,10,09,38,14.10
2019,07,10,09,39,14.10
2019,07,10,09,40,14.20
2019,07,10,09,41,14.20
2019,07,10,09,42,14.10
2019,07,10,09,43,14.20
2019,07,10,09,44,14.20
2019,07,10,09,45,14.20
2019,07,10,09,46,14.20
2019,07,10,09,47,14.20
2019,07,10,09,48,14.20
2019,07,10,09,49,14.20
2019,07,10,09,50,14.20
2019,07,10,09,51,14.20
2019,07,10,09,52,14.30
2019,07,10,09,53,14.30
2019,07,10,09,54,14.30
2019,07,10,09,55,14.30
2019,07,10,09,56,14.30
2019,07,10,09,57,14.30
2019,07,10,09,58,14.30
2019,07,10,09,59,14.30
2019,07,10,10,00,14.40
2019,07,10,10,01,14.30
2019,07,10,10,02,14.30
2019,07,10,10,03,14.30
2019,07,10,10,04,14.40
2019,07,10,10,05,14.40
2019,07,10,10,06,14.50
2019,07,10,10,07,14.60
2019,07,10,10,08,14.60
2019,07,10,10,09,14.70
2019,07,10,10,10,14.70
2019,07,10,10,11,14.60
2019,07,10,10,12,14.10
2019,07,10,10,13,13.70
2019,07,10,10,14,13.40
2019,07,10,10,15,13.10
2019,07,10,10,16,13.00
2019,07,10,10,17,13.00
2019,07,10,10,18,13.10
2019,07,10,10,19,13.30
2019,07,10,10,20,13.40
2019,07,10,10,21,13.50
2019,07,10,10,22,13.50
2019,07,10,10,23,13.50
2019,07,10,10,24,13.40
2019,07,10,10,25,13.40
2019,07,10,10,26,13.40
2019,07,10,10,27,13.50
2019,07,10,10,28,13.60
2019,07,10,10,29,13.50
2019,07,10,10,30,13.40
2019,07,10,10,31,13.40
2019,07,10,10,32,13.40
2019,07,10,10,33,13.50
2019,07,10,10,34,13.60
2019,07,10,10,35,13.60
2019,07,10,10,36,13.50
2019,07,10,10,37,13.40
2019,07,10,10,38,13.40
2019,07,10,10,39,13.50
2019,07,10,10,40,13.50
2019,07,10,10,41,13.60
2019,07,10,10,42,13.60
2019,07,10,10,43,13.60
2019,07,10,10,44,13.60
2019,07,10,10,45,13.60
2019,07,10,10,46,13.50
2019,07,10,10,47,13.40
2019,07,10,10,48,13.30
2019,07,10,10,49,13.20
2019,07,10,10,50,12.90
2019,07,10,10,51,12.70
2019,07,10,10,52,12.40
2019,07,10,10,53,12.30
2019,07,10,10,54,12.20
2019,07,10,10,55,12.30
2019,07,10,10,56,12.40
2019,07,10,10,57,12.50
2019,07,10,10,58,12.60
2019,07,10,10,59,12.80
2019,07,10,11,00,12.80
2019,07,10,11,01,12.90
2019,07,10,11,02,13.00
2019,07,10,11,03,13.10
2019,07,10,11,04,13.20
2019,07,10,11,05,13.10
2019,07,10,11,06,12.90
2019,07,10,11,07,12.70
2019,07,10,11,08,12.60
2019,07,10,11,09,12.50
2019,07,10,11,10,12.50
2019,07,10,11,11,12.50
2019,07,10,11,12,12.50
2019,07,10,11,13,12.50
2019,07,10,11,14,12.40
2019,07,10,11,15,12.50
2019,07,10,11,16,12.60
2019,07,10,11,17,12.80
2019,07,10,11,18,12.90
2019,07,10,11,19,13.00
2019,07,10,11,20,13.00
2019,07,10,11,21,13.10
2019,07,10,11,22,13.10
2019,07,10,11,23,13.10
2019,07,10,11,24,13.10
2019,07,10,11,25,13.00
2019,07,10,11,26,12.90
2019,07,10,11,27,12.90
2019,07,10,11,28,13.00
2019,07,10,11,29,13.10
2019,07,10,11,30,13.20
2019,07,10,11,31,13.30
2019,07,10,11,32,13.30
2019,07,10,11,33,13.30
2019,07,10,11,34,13.30
2019,07,10,11,35,13.20
2019,07,10,11,36,13.10
2019,07,10,11,37,13.00
2019,07,10,11,38,13.00
2019,07,10,11,39,13.00
2019,07,10,11,40,13.10
2019,07,10,11,41,13.20
2019,07,10,11,42,13.30
2019,07,10,11,43,13.30
2019,07,10,11,44,13.40
2019,07,10,11,45,13.40
2019,07,10,11,46,13.50
2019,07,10,11,47,13.60
2019,07,10,11,48,13.60
2019,07,10,11,49,13.70
2019,07,10,11,50,13.70
2019,07,10,11,51,13.70
2019,07,10,11,52,13.80
2019,07,10,11,53,13.80
2019,07,10,11,54,13.90
2019,07,10,11,55,13.90
2019,07,10,11,56,13.90
2019,07,10,11,57,13.90
2019,07,10,11,58,14.00
2019,07,10,11,59,14.00
2019,07,10,12,00,14.00
2019,07,10,12,01,14.00
2019,07,10,12,02,14.00
2019,07,10,12,03,14.10
2019,07,10,12,04,14.10
2019,07,10,12,05,14.00
2019,07,10,12,06,14.00
2019,07,10,12,07,14.00
2019,07,10,12,08,14.00
2019,07,10,12,09,14.00
2019,07,10,12,10,14.00
2019,07,10,12,11,13.90
2019,07,10,12,12,12.90
2019,07,10,12,13,12.90
2019,07,10,12,14,13.00
2019,07,10,12,15,13.10
2019,07,10,12,16,13.20
2019,07,10,12,17,13.30
2019,07,10,12,18,13.40
2019,07,10,12,19,13.30
2019,07,10,12,20,13.10
2019,07,10,12,21,12.90
2019,07,10,12,22,12.60
2019,07,10,12,23,12.40
2019,07,10,12,24,12.30
2019,07,10,12,25,12.20
2019,07,10,12,26,12.20
2019,07,10,12,27,12.20
2019,07,10,12,28,12.20
2019,07,10,12,29,12.30
2019,07,10,12,30,12.30
2019,07,10,12,31,12.30
2019,07,10,12,32,12.20
2019,07,10,12,33,12.20
2019,07,10,12,34,12.20
2019,07,10,12,35,12.30
2019,07,10,12,36,12.40
2019,07,10,12,37,12.60
2019,07,10,12,38,12.60
2019,07,10,12,39,12.60
2019,07,10,12,40,12.60
2019,07,10,12,41,12.60
2019,07,10,12,42,12.70
2019,07,10,12,43,12.70
2019,07,10,12,44,12.70
2019,07,10,12,45,12.70
2019,07,10,12,46,12.80
2019,07,10,12,47,12.90
2019,07,10,12,48,12.80
2019,07,10,12,49,12.80
2019,07,10,12,50,12.70
2019,07,10,12,51,12.60
2019,07,10,12,52,12.60
2019,07,10,12,53,12.60
2019,07,10,12,54,12.70
2019,07,10,12,55,12.60
2019,07,10,12,56,12.60
2019,07,10,12,57,12.60
2019,07,10,12,58,12.60
2019,07,10,12,59,12.60
2019,07,10,13,00,12.70
2019,07,10,13,01,12.70
2019,07,10,13,02,12.70
2019,07,10,13,03,12.70
2019,07,10,13,04,12.70
2019,07,10,13,05,12.80
2019,07,10,13,06,12.80
2019,07,10,13,07,12.80
2019,07,10,13,08,12.80
2019,07,10,13,09,12.80
2019,07,10,13,10,12.90
2019,07,10,13,11,12.90
2019,07,10,13,12,12.90
2019,07,10,13,13,12.90
2019,07,10,13,14,12.90
2019,07,10,13,15,12.90
2019,07,10,13,16,13.00
2019,07,10,13,17,13.00
2019,07,10,13,18,13.00
2019,07,10,13,19,13.00
2019,07,10,13,20,13.00
2019,07,10,13,21,13.00
2019,07,10,13,22,13.10
2019,07,10,13,23,13.10
2019,07,10,13,24,13.10
2019,07,10,13,25,13.10
2019,07,10,13,26,13.20
2019,07,10,13,27,13.20
2019,07,10,13,28,13.20
2019,07,10,13,29,13.20
2019,07,10,13,30,13.20
2019,07,10,13,31,13.30
2019,07,10,13,32,13.30
2019,07,10,13,33,13.40
2019,07,10,13,34,13.40
2019,07,10,13,35,13.40
2019,07,10,13,36,13.50
2019,07,10,13,37,13.50
2019,07,10,13,38,13.60
2019,07,10,13,39,13.60
2019,07,10,13,40,13.60
2019,07,10,13,41,13.60
2019,07,10,13,42,13.60
2019,07,10,13,43,13.60
2019,07,10,13,44,13.60
2019,07,10,13,45,13.60
2019,07,10,13,46,13.70
2019,07,10,13,47,13.80
2019,07,10,13,48,13.80
2019,07,10,13,49,13.80
2019,07,10,13,50,13.70
2019,07,10,13,51,13.80
2019,07,10,13,52,13.80
2019,07,10,13,53,13.90
2019,07,10,13,54,13.90
2019,07,10,13,55,14.00
2019,07,10,13,56,14.00
2019,07,10,13,57,13.90
2019,07,10,13,58,13.90
2019,07,10,13,59,14.00
2019,07,10,14,00,14.00
2019,07,10,14,01,14.00
2019,07,10,14,02,13.90
2019,07,10,14,03,14.00
2019,07,10,14,04,14.00
2019,07,10,14,05,14.10
2019,07,10,14,06,14.10
2019,07,10,14,07,14.10
2019,07,10,14,08,14.10
2019,07,10,14,09,14.10
2019,07,10,14,10,14.30
2019,07,10,14,11,14.60
2019,07,10,14,12,14.80
2019,07,10,14,13,14.90
2019,07,10,14,14,14.90
2019,07,10,14,15,15.00
2019,07,10,14,16,15.10
2019,07,10,14,17,15.10
2019,07,10,14,18,15.20
2019,07,10,14,19,15.20
2019,07,10,14,20,15.20
2019,07,10,14,21,15.20
2019,07,10,14,22,15.20
2019,07,10,14,23,15.20
2019,07,10,14,24,15.20
2019,07,10,14,25,15.20
2019,07,10,14,26,15.20
2019,07,10,14,27,15.20
2019,07,10,14,28,15.20
2019,07,10,14,29,15.20
2019,07,10,14,30,15.20
2019,07,10,14,31,15.20
2019,07,10,14,32,15.20
2019,07,10,14,33,15.30
2019,07,10,14,34,15.30
2019,07,10,14,35,15.30
2019,07,10,14,36,15.30
2019,07,10,14,37,15.30
2019,07,10,14,38,15.40
2019,07,10,14,39,15.40
2019,07,10,14,40,15.50
2019,07,10,14,41,15.60
2019,07,10,14,42,15.60
2019,07,10,14,43,15.50
2019,07,10,14,44,15.30
2019,07,10,14,45,15.20
2019,07,10,14,46,15.20
2019,07,10,14,47,15.10
2019,07,10,14,48,15.10
2019,07,10,14,49,15.20
2019,07,10,14,50,15.20
2019,07,10,14,51,15.30
2019,07,10,14,52,15.40
2019,07,10,14,53,15.40
2019,07,10,14,54,15.40
2019,07,10,14,55,15.40
2019,07,10,14,56,15.40
2019,07,10,14,57,15.30
2019,07,10,14,58,15.20
2019,07,10,14,59,15.10
2019,07,10,15,00,15.00
2019,07,10,15,01,14.90
2019,07,10,15,02,14.90
2019,07,10,15,03,14.90
2019,07,10,15,04,14.90
2019,07,10,15,05,14.90
2019,07,10,15,06,14.70
2019,07,10,15,07,14.70
2019,07,10,15,08,14.80
2019,07,10,15,09,14.80
2019,07,10,15,10,14.90
2019,07,10,15,11,14.90
2019,07,10,15,12,14.90
2019,07,10,15,13,15.00
2019,07,10,15,14,15.00
2019,07,10,15,15,15.00
2019,07,10,15,16,15.00
2019,07,10,15,17,15.10
2019,07,10,15,18,15.00
2019,07,10,15,19,14.90
2019,07,10,15,20,14.80
2019,07,10,15,21,14.80
2019,07,10,15,22,14.60
2019,07,10,15,23,14.60
2019,07,10,15,24,14.50
2019,07,10,15,25,14.50
2019,07,10,15,26,14.50
2019,07,10,15,27,14.60
2019,07,10,15,28,14.60
2019,07,10,15,29,14.70
2019,07,10,15,30,14.70
2019,07,10,15,31,14.70
2019,07,10,15,32,14.70
2019,07,10,15,33,14.70
2019,07,10,15,34,14.70
2019,07,10,15,35,14.70
2019,07,10,15,36,14.70
2019,07,10,15,37,14.70
2019,07,10,15,38,14.70
2019,07,10,15,39,14.60
2019,07,10,15,40,14.60
2019,07,10,15,41,14.60
2019,07,10,15,42,14.60
2019,07,10,15,43,14.60
2019,07,10,15,44,14.60
2019,07,10,15,45,14.70
2019,07,10,15,46,14.70
2019,07,10,15,47,14.70
2019,07,10,15,48,14.80
2019,07,10,15,49,14.90
2019,07,10,15,50,14.90
2019,07,10,15,51,14.80
2019,07,10,15,52,14.80
2019,07,10,15,53,14.70
2019,07,10,15,54,14.60
2019,07,10,15,55,14.60
2019,07,10,15,56,14.50
2019,07,10,15,57,14.50
2019,07,10,15,58,14.50
2019,07,10,15,59,14.40
2019,07,10,16,00,14.40
2019,07,10,16,01,14.40
2019,07,10,16,02,14.40
2019,07,10,16,03,14.40
2019,07,10,16,04,14.30
2019,07,10,16,05,14.30
2019,07,10,16,06,14.30
2019,07,10,16,07,14.10
2019,07,10,16,08,14.00
2019,07,10,16,09,14.00
2019,07,10,16,10,13.90
2019,07,10,16,11,13.90
2019,07,10,16,12,13.90
2019,07,10,16,13,13.80
2019,07,10,16,14,13.80
2019,07,10,16,15,13.70
2019,07,10,16,16,13.60
2019,07,10,16,17,13.70
2019,07,10,16,18,13.70
2019,07,10,16,19,13.70
2019,07,10,16,20,13.70
2019,07,10,16,21,13.70
2019,07,10,16,22,13.70
2019,07,10,16,23,13.70
2019,07,10,16,24,13.70
2019,07,10,16,25,13.70
2019,07,10,16,26,13.70
2019,07,10,16,27,13.60
2019,07,10,16,28,13.60
2019,07,10,16,29,13.60
2019,07,10,16,30,13.60
2019,07,10,16,31,13.50
2019,07,10,16,32,13.50
2019,07,10,16,33,13.50
2019,07,10,16,34,13.40
2019,07,10,16,35,13.40
2019,07,10,16,36,13.40
2019,07,10,16,37,13.50
2019,07,10,16,38,13.50
2019,07,10,16,39,13.60
2019,07,10,16,40,13.60
2019,07,10,16,41,13.70
2019,07,10,16,42,13.90
2019,07,10,16,43,14.00
2019,07,10,16,44,14.10
2019,07,10,16,45,14.10
2019,07,10,16,46,14.00
2019,07,10,16,47,13.90
2019,07,10,16,48,13.80
2019,07,10,16,49,13.80
2019,07,10,16,50,13.80
2019,07,10,16,51,13.80
2019,07,10,16,52,13.90
2019,07,10,16,53,13.90
2019,07,10,16,54,13.80
2019,07,10,16,55,13.80
2019,07,10,16,56,13.70
2019,07,10,16,57,13.80
2019,07,10,16,58,13.90
2019,07,10,16,59,13.90
2019,07,10,17,00,13.90
2019,07,10,17,01,13.90
2019,07,10,17,02,13.90
2019,07,10,17,03,13.90
2019,07,10,17,04,13.90
2019,07,10,17,05,13.90
2019,07,10,17,06,14.00
2019,07,10,17,07,14.00
2019,07,10,17,08,14.00
2019,07,10,17,09,14.10
2019,07,10,17,10,14.10
2019,07,10,17,11,14.10
2019,07,10,17,12,14.10
2019,07,10,17,13,14.20
2019,07,10,17,14,14.20
2019,07,10,17,15,14.20
2019,07,10,17,16,14.10
2019,07,10,17,17,14.10
2019,07,10,17,18,14.10
2019,07,10,17,19,14.10